Year,Month,Day,Hour,Minute,Value (Times are PST for temperature in C)
2009,06,23,00,00,12.40
2009,06,23,00,01,12.40
2009,06,23,00,02,12.40
2009,06,23,00,03,12.30
2009,06,23,00,04,12.30
2009,06,23,00,05,12.30
2009,06,23,00,06,12.30
2009,06,23,00,07,12.20
2009,06,23,00,08,12.20
2009,06,23,00,09,12.20
2009,06,23,00,10,12.20
2009,06,23,00,11,12.20
2009,06,23,00,12,12.10
2009,06,23,00,13,12.10
2009,06,23,00,14,12.10
2009,06,23,00,15,12.00
2009,06,23,00,16,11.90
2009,06,23,00,17,11.90
2009,06,23,00,18,11.90
2009,06,23,00,19,11.90
2009,06,23,00,20,11.80
2009,06,23,00,21,11.80
2009,06,23,00,22,11.80
2009,06,23,00,23,11.80
2009,06,23,00,24,11.70
2009,06,23,00,25,11.70
2009,06,23,00,26,11.70
2009,06,23,00,27,11.70
2009,06,23,00,28,11.70
2009,06,23,00,29,11.70
2009,06,23,00,30,11.70
2009,06,23,00,31,11.60
2009,06,23,00,32,11.60
2009,06,23,00,33,11.60
2009,06,23,00,34,11.60
2009,06,23,00,35,11.60
2009,06,23,00,36,11.60
2009,06,23,00,37,11.60
2009,06,23,00,38,11.50
2009,06,23,00,39,11.50
2009,06,23,00,40,11.50
2009,06,23,00,41,11.40
2009,06,23,00,42,11.40
2009,06,23,00,43,11.40
2009,06,23,00,44,11.40
2009,06,23,00,45,11.40
2009,06,23,00,46,11.40
2009,06,23,00,47,11.40
2009,06,23,00,48,11.30
2009,06,23,00,49,11.30
2009,06,23,00,50,11.30
2009,06,23,00,51,11.30
2009,06,23,00,52,11.30
2009,06,23,00,53,11.30
2009,06,23,00,54,11.30
2009,06,23,00,55,11.30
2009,06,23,00,56,11.30
2009,06,23,00,57,11.30
2009,06,23,00,58,11.20
2009,06,23,00,59,11.20
2009,06,23,01,00,11.20
2009,06,23,01,01,11.20
2009,06,23,01,02,11.20
2009,06,23,01,03,11.20
2009,06,23,01,04,11.20
2009,06,23,01,05,11.20
2009,06,23,01,06,11.20
2009,06,23,01,07,11.20
2009,06,23,01,08,11.20
2009,06,23,01,09,11.20
2009,06,23,01,10,11.10
2009,06,23,01,11,11.10
2009,06,23,01,12,11.10
2009,06,23,01,13,11.10
2009,06,23,01,14,11.10
2009,06,23,01,15,11.10
2009,06,23,01,16,11.10
2009,06,23,01,17,11.10
2009,06,23,01,18,11.10
2009,06,23,01,19,11.00
2009,06,23,01,20,11.00
2009,06,23,01,21,11.00
2009,06,23,01,22,11.00
2009,06,23,01,23,10.90
2009,06,23,01,24,10.90
2009,06,23,01,25,10.90
2009,06,23,01,26,10.90
2009,06,23,01,27,10.90
2009,06,23,01,28,10.90
2009,06,23,01,29,10.90
2009,06,23,01,30,10.90
2009,06,23,01,31,10.90
2009,06,23,01,32,10.80
2009,06,23,01,33,10.80
2009,06,23,01,34,10.80
2009,06,23,01,35,10.80
2009,06,23,01,36,10.80
2009,06,23,01,37,10.80
2009,06,23,01,38,10.80
2009,06,23,01,39,10.80
2009,06,23,01,40,10.80
2009,06,23,01,41,10.80
2009,06,23,01,42,10.80
2009,06,23,01,43,10.70
2009,06,23,01,44,10.70
2009,06,23,01,45,10.70
2009,06,23,01,46,10.70
2009,06,23,01,47,10.70
2009,06,23,01,48,10.70
2009,06,23,01,49,10.70
2009,06,23,01,50,10.70
2009,06,23,01,51,10.70
2009,06,23,01,52,10.70
2009,06,23,01,53,10.60
2009,06,23,01,54,10.60
2009,06,23,01,55,10.60
2009,06,23,01,56,10.60
2009,06,23,01,57,10.60
2009,06,23,01,58,10.60
2009,06,23,01,59,10.60
2009,06,23,02,00,10.60
2009,06,23,02,01,10.60
2009,06,23,02,02,10.60
2009,06,23,02,03,10.60
2009,06,23,02,04,10.60
2009,06,23,02,05,10.50
2009,06,23,02,06,10.50
2009,06,23,02,07,10.50
2009,06,23,02,08,10.50
2009,06,23,02,09,10.50
2009,06,23,02,10,10.50
2009,06,23,02,11,10.50
2009,06,23,02,12,10.50
2009,06,23,02,13,10.40
2009,06,23,02,14,10.40
2009,06,23,02,15,10.40
2009,06,23,02,16,10.40
2009,06,23,02,17,10.40
2009,06,23,02,18,10.40
2009,06,23,02,19,10.40
2009,06,23,02,20,10.40
2009,06,23,02,21,10.40
2009,06,23,02,22,10.40
2009,06,23,02,23,10.40
2009,06,23,02,24,10.40
2009,06,23,02,25,10.40
2009,06,23,02,26,10.40
2009,06,23,02,27,10.30
2009,06,23,02,28,10.40
2009,06,23,02,29,10.30
2009,06,23,02,30,10.30
2009,06,23,02,31,10.30
2009,06,23,02,32,10.30
2009,06,23,02,33,10.30
2009,06,23,02,34,10.30
2009,06,23,02,35,10.30
2009,06,23,02,36,10.30
2009,06,23,02,37,10.30
2009,06,23,02,38,10.30
2009,06,23,02,39,10.30
2009,06,23,02,40,10.30
2009,06,23,02,41,10.30
2009,06,23,02,42,10.30
2009,06,23,02,43,10.30
2009,06,23,02,44,10.30
2009,06,23,02,45,10.30
2009,06,23,02,46,10.30
2009,06,23,02,47,10.30
2009,06,23,02,48,10.30
2009,06,23,02,49,10.20
2009,06,23,02,50,10.20
2009,06,23,02,51,10.20
2009,06,23,02,52,10.20
2009,06,23,02,53,10.20
2009,06,23,02,54,10.20
2009,06,23,02,55,10.20
2009,06,23,02,56,10.20
2009,06,23,02,57,10.10
2009,06,23,02,58,10.10
2009,06,23,02,59,10.10
2009,06,23,03,00,10.10
2009,06,23,03,01,10.10
2009,06,23,03,02,10.10
2009,06,23,03,03,10.10
2009,06,23,03,04,10.00
2009,06,23,03,05,10.00
2009,06,23,03,06,10.00
2009,06,23,03,07,10.00
2009,06,23,03,08,10.00
2009,06,23,03,09,9.90
2009,06,23,03,10,9.90
2009,06,23,03,11,9.90
2009,06,23,03,12,9.90
2009,06,23,03,13,9.90
2009,06,23,03,14,9.90
2009,06,23,03,15,9.90
2009,06,23,03,16,9.90
2009,06,23,03,17,9.90
2009,06,23,03,18,9.90
2009,06,23,03,19,9.90
2009,06,23,03,20,9.90
2009,06,23,03,21,9.90
2009,06,23,03,22,9.90
2009,06,23,03,23,9.90
2009,06,23,03,24,9.90
2009,06,23,03,25,9.90
2009,06,23,03,26,9.90
2009,06,23,03,27,9.90
2009,06,23,03,28,9.90
2009,06,23,03,29,9.80
2009,06,23,03,30,9.80
2009,06,23,03,31,9.80
2009,06,23,03,32,9.80
2009,06,23,03,33,9.80
2009,06,23,03,34,9.80
2009,06,23,03,35,9.80
2009,06,23,03,36,9.80
2009,06,23,03,37,9.80
2009,06,23,03,38,9.80
2009,06,23,03,39,9.80
2009,06,23,03,40,9.80
2009,06,23,03,41,9.80
2009,06,23,03,42,9.70
2009,06,23,03,43,9.70
2009,06,23,03,44,9.70
2009,06,23,03,45,9.70
2009,06,23,03,46,9.70
2009,06,23,03,47,9.70
2009,06,23,03,48,9.70
2009,06,23,03,49,9.70
2009,06,23,03,50,9.70
2009,06,23,03,51,9.70
2009,06,23,03,52,9.70
2009,06,23,03,53,9.60
2009,06,23,03,54,9.60
2009,06,23,03,55,9.60
2009,06,23,03,56,9.60
2009,06,23,03,57,9.60
2009,06,23,03,58,9.60
2009,06,23,03,59,9.60
2009,06,23,04,00,9.60
2009,06,23,04,01,9.60
2009,06,23,04,02,9.60
2009,06,23,04,03,9.60
2009,06,23,04,04,9.60
2009,06,23,04,05,9.60
2009,06,23,04,06,9.60
2009,06,23,04,07,9.60
2009,06,23,04,08,9.60
2009,06,23,04,09,9.50
2009,06,23,04,10,9.50
2009,06,23,04,11,9.50
2009,06,23,04,12,9.50
2009,06,23,04,13,9.50
2009,06,23,04,14,9.50
2009,06,23,04,15,9.50
2009,06,23,04,16,9.50
2009,06,23,04,17,9.50
2009,06,23,04,18,9.50
2009,06,23,04,19,9.50
2009,06,23,04,20,9.50
2009,06,23,04,21,9.50
2009,06,23,04,22,9.50
2009,06,23,04,23,9.50
2009,06,23,04,24,9.40
2009,06,23,04,25,9.40
2009,06,23,04,26,9.40
2009,06,23,04,27,9.40
2009,06,23,04,28,9.40
2009,06,23,04,29,9.40
2009,06,23,04,30,9.40
2009,06,23,04,31,9.40
2009,06,23,04,32,9.40
2009,06,23,04,33,9.40
2009,06,23,04,34,9.40
2009,06,23,04,35,9.30
2009,06,23,04,36,9.30
2009,06,23,04,37,9.30
2009,06,23,04,38,9.30
2009,06,23,04,39,9.30
2009,06,23,04,40,9.30
2009,06,23,04,41,9.30
2009,06,23,04,42,9.20
2009,06,23,04,43,9.20
2009,06,23,04,44,9.20
2009,06,23,04,45,9.20
2009,06,23,04,46,9.20
2009,06,23,04,47,9.20
2009,06,23,04,48,9.20
2009,06,23,04,49,9.10
2009,06,23,04,50,9.10
2009,06,23,04,51,9.10
2009,06,23,04,52,9.10
2009,06,23,04,53,9.10
2009,06,23,04,54,9.10
2009,06,23,04,55,9.10
2009,06,23,04,56,9.10
2009,06,23,04,57,9.00
2009,06,23,04,58,9.00
2009,06,23,04,59,9.00
2009,06,23,05,00,9.00
2009,06,23,05,01,8.90
2009,06,23,05,02,8.90
2009,06,23,05,03,8.90
2009,06,23,05,04,8.90
2009,06,23,05,05,8.90
2009,06,23,05,06,8.90
2009,06,23,05,07,8.90
2009,06,23,05,08,8.90
2009,06,23,05,09,8.90
2009,06,23,05,10,8.90
2009,06,23,05,11,8.80
2009,06,23,05,12,8.80
2009,06,23,05,13,8.80
2009,06,23,05,14,8.80
2009,06,23,05,15,8.80
2009,06,23,05,16,8.80
2009,06,23,05,17,8.80
2009,06,23,05,18,8.80
2009,06,23,05,19,8.80
2009,06,23,05,20,8.80
2009,06,23,05,21,8.80
2009,06,23,05,22,8.80
2009,06,23,05,23,8.80
2009,06,23,05,24,8.80
2009,06,23,05,25,8.80
2009,06,23,05,26,8.80
2009,06,23,05,27,8.80
2009,06,23,05,28,8.80
2009,06,23,05,29,8.80
2009,06,23,05,30,8.80
2009,06,23,05,31,8.80
2009,06,23,05,32,8.80
2009,06,23,05,33,8.80
2009,06,23,05,34,8.70
2009,06,23,05,35,8.70
2009,06,23,05,36,8.70
2009,06,23,05,37,8.70
2009,06,23,05,38,8.70
2009,06,23,05,39,8.70
2009,06,23,05,40,8.70
2009,06,23,05,41,8.70
2009,06,23,05,42,8.70
2009,06,23,05,43,8.70
2009,06,23,05,44,8.70
2009,06,23,05,45,8.70
2009,06,23,05,46,8.60
2009,06,23,05,47,8.60
2009,06,23,05,48,8.60
2009,06,23,05,49,8.60
2009,06,23,05,50,8.60
2009,06,23,05,51,8.60
2009,06,23,05,52,8.60
2009,06,23,05,53,8.70
2009,06,23,05,54,8.70
2009,06,23,05,55,8.70
2009,06,23,05,56,8.70
2009,06,23,05,57,8.70
2009,06,23,05,58,8.70
2009,06,23,05,59,8.70
2009,06,23,06,00,8.70
2009,06,23,06,01,8.70
2009,06,23,06,02,8.70
2009,06,23,06,03,8.80
2009,06,23,06,04,8.80
2009,06,23,06,05,8.80
2009,06,23,06,06,8.80
2009,06,23,06,07,8.80
2009,06,23,06,08,8.90
2009,06,23,06,09,8.90
2009,06,23,06,10,8.90
2009,06,23,06,11,8.90
2009,06,23,06,12,9.00
2009,06,23,06,13,9.10
2009,06,23,06,14,9.10
2009,06,23,06,15,9.10
2009,06,23,06,16,9.20
2009,06,23,06,17,9.20
2009,06,23,06,18,9.20
2009,06,23,06,19,9.30
2009,06,23,06,20,9.30
2009,06,23,06,21,9.30
2009,06,23,06,22,9.30
2009,06,23,06,23,9.40
2009,06,23,06,24,9.40
2009,06,23,06,25,9.40
2009,06,23,06,26,9.40
2009,06,23,06,27,9.50
2009,06,23,06,28,9.60
2009,06,23,06,29,9.60
2009,06,23,06,30,9.60
2009,06,23,06,31,9.60
2009,06,23,06,32,9.70
2009,06,23,06,33,9.70
2009,06,23,06,34,9.80
2009,06,23,06,35,9.80
2009,06,23,06,36,9.90
2009,06,23,06,37,9.90
2009,06,23,06,38,10.00
2009,06,23,06,39,10.10
2009,06,23,06,40,10.10
2009,06,23,06,41,10.20
2009,06,23,06,42,10.20
2009,06,23,06,43,10.30
2009,06,23,06,44,10.30
2009,06,23,06,45,10.40
2009,06,23,06,46,10.40
2009,06,23,06,47,10.40
2009,06,23,06,48,10.50
2009,06,23,06,49,10.60
2009,06,23,06,50,10.60
2009,06,23,06,51,10.70
2009,06,23,06,52,10.70
2009,06,23,06,53,10.80
2009,06,23,06,54,10.80
2009,06,23,06,55,10.80
2009,06,23,06,56,10.90
2009,06,23,06,57,10.90
2009,06,23,06,58,10.90
2009,06,23,06,59,10.90
2009,06,23,07,00,11.00
2009,06,23,07,01,11.00
2009,06,23,07,02,11.00
2009,06,23,07,03,11.10
2009,06,23,07,04,11.10
2009,06,23,07,05,11.10
2009,06,23,07,06,11.10
2009,06,23,07,07,11.10
2009,06,23,07,08,11.10
2009,06,23,07,09,11.10
2009,06,23,07,10,11.20
2009,06,23,07,11,11.20
2009,06,23,07,12,11.20
2009,06,23,07,13,11.20
2009,06,23,07,14,11.20
2009,06,23,07,15,11.20
2009,06,23,07,16,11.30
2009,06,23,07,17,11.30
2009,06,23,07,18,11.30
2009,06,23,07,19,11.40
2009,06,23,07,20,11.40
2009,06,23,07,21,11.60
2009,06,23,07,22,11.60
2009,06,23,07,23,11.70
2009,06,23,07,24,11.70
2009,06,23,07,25,11.80
2009,06,23,07,26,11.80
2009,06,23,07,27,11.90
2009,06,23,07,28,11.90
2009,06,23,07,29,12.00
2009,06,23,07,30,12.10
2009,06,23,07,31,12.20
2009,06,23,07,32,12.20
2009,06,23,07,33,12.30
2009,06,23,07,34,12.30
2009,06,23,07,35,12.40
2009,06,23,07,36,12.50
2009,06,23,07,37,12.60
2009,06,23,07,38,12.70
2009,06,23,07,39,12.70
2009,06,23,07,40,12.80
2009,06,23,07,41,12.80
2009,06,23,07,42,12.80
2009,06,23,07,43,12.90
2009,06,23,07,44,12.90
2009,06,23,07,45,12.90
2009,06,23,07,46,13.00
2009,06,23,07,47,13.10
2009,06,23,07,48,13.10
2009,06,23,07,49,13.20
2009,06,23,07,50,13.20
2009,06,23,07,51,13.20
2009,06,23,07,52,13.20
2009,06,23,07,53,13.20
2009,06,23,07,54,13.20
2009,06,23,07,55,13.10
2009,06,23,07,56,13.10
2009,06,23,07,57,12.90
2009,06,23,07,58,12.90
2009,06,23,07,59,12.90
2009,06,23,08,00,12.90
2009,06,23,08,01,13.00
2009,06,23,08,02,13.10
2009,06,23,08,03,13.10
2009,06,23,08,04,13.20
2009,06,23,08,05,13.30
2009,06,23,08,06,13.30
2009,06,23,08,07,13.40
2009,06,23,08,08,13.40
2009,06,23,08,09,13.40
2009,06,23,08,10,13.30
2009,06,23,08,11,13.30
2009,06,23,08,12,13.20
2009,06,23,08,13,13.20
2009,06,23,08,14,13.10
2009,06,23,08,15,13.20
2009,06,23,08,16,13.10
2009,06,23,08,17,13.10
2009,06,23,08,18,13.10
2009,06,23,08,19,13.00
2009,06,23,08,20,12.90
2009,06,23,08,21,12.90
2009,06,23,08,22,12.90
2009,06,23,08,23,12.90
2009,06,23,08,24,12.90
2009,06,23,08,25,13.00
2009,06,23,08,26,13.10
2009,06,23,08,27,13.20
2009,06,23,08,28,13.20
2009,06,23,08,29,13.20
2009,06,23,08,30,13.10
2009,06,23,08,31,13.10
2009,06,23,08,32,13.10
2009,06,23,08,33,13.10
2009,06,23,08,34,13.10
2009,06,23,08,35,13.10
2009,06,23,08,36,13.20
2009,06,23,08,37,13.30
2009,06,23,08,38,13.30
2009,06,23,08,39,13.40
2009,06,23,08,40,13.60
2009,06,23,08,41,13.70
2009,06,23,08,42,13.80
2009,06,23,08,43,13.90
2009,06,23,08,44,14.00
2009,06,23,08,45,14.10
2009,06,23,08,46,14.20
2009,06,23,08,47,14.20
2009,06,23,08,48,14.20
2009,06,23,08,49,14.20
2009,06,23,08,50,14.20
2009,06,23,08,51,14.30
2009,06,23,08,52,14.30
2009,06,23,08,53,14.30
2009,06,23,08,54,14.40
2009,06,23,08,55,14.50
2009,06,23,08,56,14.60
2009,06,23,08,57,14.60
2009,06,23,08,58,14.70
2009,06,23,08,59,14.70
2009,06,23,09,00,14.80
2009,06,23,09,01,14.80
2009,06,23,09,02,14.80
2009,06,23,09,03,14.80
2009,06,23,09,04,14.90
2009,06,23,09,05,14.90
2009,06,23,09,06,14.90
2009,06,23,09,07,14.80
2009,06,23,09,08,14.80
2009,06,23,09,09,14.70
2009,06,23,09,10,14.70
2009,06,23,09,11,14.70
2009,06,23,09,12,14.70
2009,06,23,09,13,14.70
2009,06,23,09,14,14.80
2009,06,23,09,15,14.80
2009,06,23,09,16,14.80
2009,06,23,09,17,14.70
2009,06,23,09,18,14.80
2009,06,23,09,19,14.80
2009,06,23,09,20,14.80
2009,06,23,09,21,14.80
2009,06,23,09,22,14.90
2009,06,23,09,23,14.90
2009,06,23,09,24,15.00
2009,06,23,09,25,15.00
2009,06,23,09,26,15.00
2009,06,23,09,27,15.00
2009,06,23,09,28,15.00
2009,06,23,09,29,15.00
2009,06,23,09,30,15.00
2009,06,23,09,31,15.00
2009,06,23,09,32,15.00
2009,06,23,09,33,15.00
2009,06,23,09,34,15.00
2009,06,23,09,35,15.00
2009,06,23,09,36,14.90
2009,06,23,09,37,14.90
2009,06,23,09,38,14.80
2009,06,23,09,39,14.80
2009,06,23,09,40,14.80
2009,06,23,09,41,14.80
2009,06,23,09,42,14.90
2009,06,23,09,43,15.00
2009,06,23,09,44,15.00
2009,06,23,09,45,15.00
2009,06,23,09,46,15.10
2009,06,23,09,47,15.20
2009,06,23,09,48,15.30
2009,06,23,09,49,15.40
2009,06,23,09,50,15.60
2009,06,23,09,51,15.70
2009,06,23,09,52,15.80
2009,06,23,09,53,15.90
2009,06,23,09,54,16.00
2009,06,23,09,55,16.20
2009,06,23,09,56,16.30
2009,06,23,09,57,16.40
2009,06,23,09,58,16.60
2009,06,23,09,59,16.70
2009,06,23,10,00,16.80
2009,06,23,10,01,16.80
2009,06,23,10,02,16.70
2009,06,23,10,03,16.70
2009,06,23,10,04,16.70
2009,06,23,10,05,16.70
2009,06,23,10,06,16.60
2009,06,23,10,07,16.70
2009,06,23,10,08,16.70
2009,06,23,10,09,16.70
2009,06,23,10,10,16.80
2009,06,23,10,11,16.80
2009,06,23,10,12,16.90
2009,06,23,10,13,17.00
2009,06,23,10,14,17.10
2009,06,23,10,15,17.20
2009,06,23,10,16,17.30
2009,06,23,10,17,17.40
2009,06,23,10,18,17.40
2009,06,23,10,19,17.40
2009,06,23,10,20,17.40
2009,06,23,10,21,17.40
2009,06,23,10,22,17.50
2009,06,23,10,23,17.50
2009,06,23,10,24,17.50
2009,06,23,10,25,17.50
2009,06,23,10,26,17.60
2009,06,23,10,27,17.60
2009,06,23,10,28,17.60
2009,06,23,10,29,17.70
2009,06,23,10,30,17.80
2009,06,23,10,31,17.80
2009,06,23,10,32,17.90
2009,06,23,10,33,18.00
2009,06,23,10,34,18.10
2009,06,23,10,35,18.20
2009,06,23,10,36,18.20
2009,06,23,10,37,18.30
2009,06,23,10,38,18.30
2009,06,23,10,39,18.30
2009,06,23,10,40,18.40
2009,06,23,10,41,18.40
2009,06,23,10,42,18.50
2009,06,23,10,43,18.50
2009,06,23,10,44,18.60
2009,06,23,10,45,18.70
2009,06,23,10,46,18.70
2009,06,23,10,47,18.80
2009,06,23,10,48,18.80
2009,06,23,10,49,18.80
2009,06,23,10,50,18.90
2009,06,23,10,51,18.90
2009,06,23,10,52,18.80
2009,06,23,10,53,18.70
2009,06,23,10,54,18.60
2009,06,23,10,55,18.60
2009,06,23,10,56,18.60
2009,06,23,10,57,18.60
2009,06,23,10,58,18.60
2009,06,23,10,59,18.70
2009,06,23,11,00,18.70
2009,06,23,11,01,18.70
2009,06,23,11,02,18.70
2009,06,23,11,03,18.70
2009,06,23,11,04,18.70
2009,06,23,11,05,18.70
2009,06,23,11,06,18.70
2009,06,23,11,07,18.60
2009,06,23,11,08,18.50
2009,06,23,11,09,18.30
2009,06,23,11,10,18.20
2009,06,23,11,11,18.10
2009,06,23,11,12,18.00
2009,06,23,11,13,18.00
2009,06,23,11,14,18.10
2009,06,23,11,15,18.20
2009,06,23,11,16,18.30
2009,06,23,11,17,18.40
2009,06,23,11,18,18.60
2009,06,23,11,19,18.70
2009,06,23,11,20,18.80
2009,06,23,11,21,18.90
2009,06,23,11,22,19.00
2009,06,23,11,23,19.10
2009,06,23,11,24,19.20
2009,06,23,11,25,19.30
2009,06,23,11,26,19.40
2009,06,23,11,27,19.40
2009,06,23,11,28,19.60
2009,06,23,11,29,19.70
2009,06,23,11,30,19.80
2009,06,23,11,31,20.00
2009,06,23,11,32,20.00
2009,06,23,11,33,20.00
2009,06,23,11,34,20.10
2009,06,23,11,35,20.10
2009,06,23,11,36,20.10
2009,06,23,11,37,20.20
2009,06,23,11,38,20.20
2009,06,23,11,39,20.30
2009,06,23,11,40,20.40
2009,06,23,11,41,20.50
2009,06,23,11,42,20.60
2009,06,23,11,43,20.70
2009,06,23,11,44,20.70
2009,06,23,11,45,20.80
2009,06,23,11,46,20.80
2009,06,23,11,47,20.80
2009,06,23,11,48,20.80
2009,06,23,11,49,20.70
2009,06,23,11,50,20.70
2009,06,23,11,51,20.60
2009,06,23,11,52,20.60
2009,06,23,11,53,20.60
2009,06,23,11,54,20.70
2009,06,23,11,55,20.70
2009,06,23,11,56,20.80
2009,06,23,11,57,20.80
2009,06,23,11,58,20.90
2009,06,23,11,59,20.90
2009,06,23,12,00,21.00
2009,06,23,12,01,21.10
2009,06,23,12,02,21.00
2009,06,23,12,03,20.80
2009,06,23,12,04,20.70
2009,06,23,12,05,20.70
2009,06,23,12,06,20.60
2009,06,23,12,07,20.50
2009,06,23,12,08,20.40
2009,06,23,12,09,20.30
2009,06,23,12,10,20.30
2009,06,23,12,11,20.20
2009,06,23,12,12,20.20
2009,06,23,12,13,20.20
2009,06,23,12,14,20.20
2009,06,23,12,15,20.30
2009,06,23,12,16,20.30
2009,06,23,12,17,20.40
2009,06,23,12,18,20.60
2009,06,23,12,19,20.70
2009,06,23,12,20,20.70
2009,06,23,12,21,20.80
2009,06,23,12,22,20.90
2009,06,23,12,23,21.00
2009,06,23,12,24,21.20
2009,06,23,12,25,21.30
2009,06,23,12,26,21.30
2009,06,23,12,27,21.30
2009,06,23,12,28,21.30
2009,06,23,12,29,21.40
2009,06,23,12,30,21.40
2009,06,23,12,31,21.20
2009,06,23,12,32,21.10
2009,06,23,12,33,21.00
2009,06,23,12,34,20.90
2009,06,23,12,35,20.80
2009,06,23,12,36,20.70
2009,06,23,12,37,20.60
2009,06,23,12,38,20.60
2009,06,23,12,39,20.60
2009,06,23,12,40,20.70
2009,06,23,12,41,20.80
2009,06,23,12,42,20.80
2009,06,23,12,43,20.90
2009,06,23,12,44,20.90
2009,06,23,12,45,21.00
2009,06,23,12,46,20.90
2009,06,23,12,47,20.80
2009,06,23,12,48,20.70
2009,06,23,12,49,20.50
2009,06,23,12,50,20.30
2009,06,23,12,51,20.10
2009,06,23,12,52,19.90
2009,06,23,12,53,19.80
2009,06,23,12,54,19.80
2009,06,23,12,55,19.70
2009,06,23,12,56,19.70
2009,06,23,12,57,19.70
2009,06,23,12,58,19.70
2009,06,23,12,59,19.80
2009,06,23,13,00,19.80
2009,06,23,13,01,19.90
2009,06,23,13,02,20.00
2009,06,23,13,03,20.10
2009,06,23,13,04,20.10
2009,06,23,13,05,20.20
2009,06,23,13,06,20.30
2009,06,23,13,07,20.30
2009,06,23,13,08,20.30
2009,06,23,13,09,20.40
2009,06,23,13,10,20.50
2009,06,23,13,11,20.60
2009,06,23,13,12,20.70
2009,06,23,13,13,20.70
2009,06,23,13,14,20.80
2009,06,23,13,15,20.70
2009,06,23,13,16,20.70
2009,06,23,13,17,20.60
2009,06,23,13,18,20.60
2009,06,23,13,19,20.60
2009,06,23,13,20,20.50
2009,06,23,13,21,20.50
2009,06,23,13,22,20.40
2009,06,23,13,23,20.40
2009,06,23,13,24,20.40
2009,06,23,13,25,20.30
2009,06,23,13,26,20.30
2009,06,23,13,27,20.40
2009,06,23,13,28,20.40
2009,06,23,13,29,20.40
2009,06,23,13,30,20.40
2009,06,23,13,31,20.40
2009,06,23,13,32,20.50
2009,06,23,13,33,20.60
2009,06,23,13,34,20.70
2009,06,23,13,35,20.90
2009,06,23,13,36,21.00
2009,06,23,13,37,21.10
2009,06,23,13,38,21.10
2009,06,23,13,39,21.20
2009,06,23,13,40,21.20
2009,06,23,13,41,21.30
2009,06,23,13,42,21.30
2009,06,23,13,43,21.40
2009,06,23,13,44,21.40
2009,06,23,13,45,21.50
2009,06,23,13,46,21.40
2009,06,23,13,47,21.30
2009,06,23,13,48,21.30
2009,06,23,13,49,21.20
2009,06,23,13,50,21.20
2009,06,23,13,51,21.00
2009,06,23,13,52,20.90
2009,06,23,13,53,20.90
2009,06,23,13,54,20.90
2009,06,23,13,55,21.10
2009,06,23,13,56,21.20
2009,06,23,13,57,21.30
2009,06,23,13,58,21.40
2009,06,23,13,59,21.50
2009,06,23,14,00,21.60
2009,06,23,14,01,21.60
2009,06,23,14,02,21.70
2009,06,23,14,03,21.70
2009,06,23,14,04,21.80
2009,06,23,14,05,21.80
2009,06,23,14,06,21.80
2009,06,23,14,07,21.70
2009,06,23,14,08,21.70
2009,06,23,14,09,21.80
2009,06,23,14,10,21.80
2009,06,23,14,11,21.90
2009,06,23,14,12,22.00
2009,06,23,14,13,22.10
2009,06,23,14,14,22.00
2009,06,23,14,15,21.90
2009,06,23,14,16,21.80
2009,06,23,14,17,21.90
2009,06,23,14,18,21.90
2009,06,23,14,19,22.10
2009,06,23,14,20,22.20
2009,06,23,14,21,22.20
2009,06,23,14,22,22.30
2009,06,23,14,23,22.30
2009,06,23,14,24,22.20
2009,06,23,14,25,22.20
2009,06,23,14,26,22.20
2009,06,23,14,27,22.20
2009,06,23,14,28,22.20
2009,06,23,14,29,22.30
2009,06,23,14,30,22.40
2009,06,23,14,31,22.50
2009,06,23,14,32,22.60
2009,06,23,14,33,22.70
2009,06,23,14,34,22.70
2009,06,23,14,35,22.80
2009,06,23,14,36,22.80
2009,06,23,14,37,22.90
2009,06,23,14,38,22.90
2009,06,23,14,39,23.00
2009,06,23,14,40,23.10
2009,06,23,14,41,23.10
2009,06,23,14,42,23.10
2009,06,23,14,43,23.20
2009,06,23,14,44,23.20
2009,06,23,14,45,23.20
2009,06,23,14,46,23.30
2009,06,23,14,47,23.30
2009,06,23,14,48,23.30
2009,06,23,14,49,23.40
2009,06,23,14,50,23.40
2009,06,23,14,51,23.40
2009,06,23,14,52,23.50
2009,06,23,14,53,23.50
2009,06,23,14,54,23.50
2009,06,23,14,55,23.60
2009,06,23,14,56,23.60
2009,06,23,14,57,23.60
2009,06,23,14,58,23.60
2009,06,23,14,59,23.60
2009,06,23,15,00,23.60
2009,06,23,15,01,23.60
2009,06,23,15,02,23.50
2009,06,23,15,03,23.50
2009,06,23,15,04,23.50
2009,06,23,15,05,23.40
2009,06,23,15,06,23.40
2009,06,23,15,07,23.40
2009,06,23,15,08,23.40
2009,06,23,15,09,23.40
2009,06,23,15,10,23.40
2009,06,23,15,11,23.40
2009,06,23,15,12,23.40
2009,06,23,15,13,23.40
2009,06,23,15,14,23.40
2009,06,23,15,15,23.40
2009,06,23,15,16,23.40
2009,06,23,15,17,23.40
2009,06,23,15,18,23.40
2009,06,23,15,19,23.30
2009,06,23,15,20,23.30
2009,06,23,15,21,23.30
2009,06,23,15,22,23.30
2009,06,23,15,23,23.20
2009,06,23,15,24,23.20
2009,06,23,15,25,23.20
2009,06,23,15,26,23.20
2009,06,23,15,27,23.10
2009,06,23,15,28,23.10
2009,06,23,15,29,23.10
2009,06,23,15,30,23.10
2009,06,23,15,31,23.10
2009,06,23,15,32,23.10
2009,06,23,15,33,23.10
2009,06,23,15,34,23.10
2009,06,23,15,35,23.00
2009,06,23,15,36,23.00
2009,06,23,15,37,23.00
2009,06,23,15,38,23.00
2009,06,23,15,39,23.00
2009,06,23,15,40,23.00
2009,06,23,15,41,23.00
2009,06,23,15,42,23.00
2009,06,23,15,43,23.00
2009,06,23,15,44,23.00
2009,06,23,15,45,23.00
2009,06,23,15,46,22.90
2009,06,23,15,47,22.90
2009,06,23,15,48,22.90
2009,06,23,15,49,22.90
2009,06,23,15,50,22.90
2009,06,23,15,51,22.90
2009,06,23,15,52,22.80
2009,06,23,15,53,22.80
2009,06,23,15,54,22.80
2009,06,23,15,55,22.80
2009,06,23,15,56,22.80
2009,06,23,15,57,22.80
2009,06,23,15,58,22.80
2009,06,23,15,59,22.80
2009,06,23,16,00,22.80
2009,06,23,16,01,22.80
2009,06,23,16,02,22.80
2009,06,23,16,03,22.80
2009,06,23,16,04,22.70
2009,06,23,16,05,22.70
2009,06,23,16,06,22.70
2009,06,23,16,07,22.70
2009,06,23,16,08,22.60
2009,06,23,16,09,22.60
2009,06,23,16,10,22.60
2009,06,23,16,11,22.60
2009,06,23,16,12,22.50
2009,06,23,16,13,22.50
2009,06,23,16,14,22.50
2009,06,23,16,15,22.40
2009,06,23,16,16,22.40
2009,06,23,16,17,22.40
2009,06,23,16,18,22.30
2009,06,23,16,19,22.30
2009,06,23,16,20,22.30
2009,06,23,16,21,22.20
2009,06,23,16,22,22.20
2009,06,23,16,23,22.20
2009,06,23,16,24,22.10
2009,06,23,16,25,22.10
2009,06,23,16,26,22.10
2009,06,23,16,27,22.00
2009,06,23,16,28,21.90
2009,06,23,16,29,21.90
2009,06,23,16,30,21.90
2009,06,23,16,31,21.80
2009,06,23,16,32,21.80
2009,06,23,16,33,21.80
2009,06,23,16,34,21.80
2009,06,23,16,35,21.80
2009,06,23,16,36,21.80
2009,06,23,16,37,21.80
2009,06,23,16,38,21.80
2009,06,23,16,39,21.80
2009,06,23,16,40,21.80
2009,06,23,16,41,21.80
2009,06,23,16,42,21.80
2009,06,23,16,43,21.80
2009,06,23,16,44,21.80
2009,06,23,16,45,21.80
2009,06,23,16,46,21.90
2009,06,23,16,47,21.90
2009,06,23,16,48,21.90
2009,06,23,16,49,21.80
2009,06,23,16,50,21.80
2009,06,23,16,51,21.80
2009,06,23,16,52,21.80
2009,06,23,16,53,21.80
2009,06,23,16,54,21.80
2009,06,23,16,55,21.80
2009,06,23,16,56,21.80
2009,06,23,16,57,21.80
2009,06,23,16,58,21.80
2009,06,23,16,59,21.80
2009,06,23,17,00,21.80
2009,06,23,17,01,21.80
2009,06,23,17,02,21.70
2009,06,23,17,03,21.70
2009,06,23,17,04,21.70
2009,06,23,17,05,21.70
2009,06,23,17,06,21.70
2009,06,23,17,07,21.60
2009,06,23,17,08,21.60
2009,06,23,17,09,21.60
2009,06,23,17,10,21.60
2009,06,23,17,11,21.60
2009,06,23,17,12,21.60
2009,06,23,17,13,21.60
2009,06,23,17,14,21.50
2009,06,23,17,15,21.50
2009,06,23,17,16,21.40
2009,06,23,17,17,21.40
2009,06,23,17,18,21.40
2009,06,23,17,19,21.40
2009,06,23,17,20,21.30
2009,06,23,17,21,21.40
2009,06,23,17,22,21.30
2009,06,23,17,23,21.30
2009,06,23,17,24,21.30
2009,06,23,17,25,21.30
2009,06,23,17,26,21.30
2009,06,23,17,27,21.30
2009,06,23,17,28,21.30